Helicity
177 142 110 48 -6 62 79 38 48 102 102 -8 9 52 56 195 114 105 121 92 120 148 153 169 200 122 52 45 42 4 -14 -6 5 15 28 52 -18 -6 -37 -11 -4 -9 -9 2
181 90 51 60 34 38 21 11 18 15 -16 -46 64 28 108 146 129 142 88 148 48 180 170 196 198 224 165 76 50 28 12 3 -6 -27 17 43 12 -4 -16 -20 -5 -1 3 -2
101 88 122 85 51 116 41 -24 -34 -28 82 25 8 54 48 83 109 154 123 243 249 257 208 152 199 179 151 155 85 51 21 4 -5 -40 8 44 104 109 24 8 4 -4 -19 -45
94 140 179 132 79 52 99 25 -8 60 37 4 98 49 63 -19 91 84 95 168 233 338 233 175 147 120 175 132 106 40 9 17 4 -12 -37 -0 2 9 7 -16 -24 -10 2 -16
71 149 151 155 95 65 48 -72 18 -8 51 15 41 69 3 -20 -87 -60 41 103 155 251 262 177 118 54 135 129 108 49 47 14 12 -9 -28 -29 -7 1 3 -9 -4 -15 9 21
102 25 9 87 35 108 132 107 50 31 45 -5 -78 -11 -20 -60 103 -24 10 144 165 172 260 270 188 84 78 86 89 89 46 31 37 -0 -9 -33 -32 -15 -14 -9 -5 -11 15 7
74 84 35 53 165 242 81 95 53 92 115 54 -82 -12 1 -26 42 44 -34 -11 150 185 252 248 189 102 100 77 46 81 43 14 45 18 -9 -19 -18 -16 -9 -8 -3 -12 -1 3
140 162 43 45 101 70 38 36 26 92 71 42 -6 51 11 -9 8 81 45 62 98 137 203 190 195 176 122 77 39 52 36 -10 -0 37 -3 -11 -12 -7 -17 -7 2 -0 -9 -18
111 76 45 67 65 60 99 88 14 47 42 37 7 10 -7 37 -2 69 7 85 70 106 230 96 55 163 116 110 88 85 52 6 4 17 26 -2 -14 -16 -11 -8 -3 -12 -11 -7
23 -15 33 31 45 80 55 31 33 79 42 58 -2 6 -17 -135 55 71 66 153 70 116 101 129 92 44 166 88 100 84 64 36 24 -5 35 26 -1 2 4 8 -1 -9 2 -1
34 18 100 36 46 44 104 83 69 35 41 33 25 -7 5 -113 19 78 20 60 160 134 123 133 31 8 123 89 99 115 119 80 30 26 43 58 44 29 19 25 35 14 10 26
158 24 83 122 131 26 88 91 46 55 76 45 31 8 3 -14 29 135 59 42 57 146 105 150 129 87 170 165 142 211 182 124 105 77 77 44 45 50 37 17 28 39 40 25
157 88 128 177 129 169 111 145 118 62 21 58 62 51 49 38 55 12 -40 40 -7 58 76 180 130 219 226 172 252 265 222 183 161 167 113 49 48 46 37 34 34 44 53 45
101 120 81 82 71 104 177 188 152 60 116 96 41 75 165 92 58 46 32 46 9 47 66 132 129 256 285 248 234 221 182 203 193 103 112 48 39 51 31 38 45 46 50 62
59 134 45 105 95 81 96 132 130 88 123 97 66 121 83 74 31 65 65 60 62 150 189 166 166 234 246 243 196 125 238 210 173 88 95 52 54 55 65 64 52 38 44 49
99 100 87 112 133 112 109 137 143 102 136 200 196 147 52 60 37 36 92 86 165 296 351 203 173 193 143 149 98 147 192 142 166 161 63 22 42 -14 45 72 68 58 61 53
60 81 120 112 154 147 238 209 190 180 203 90 154 115 114 113 110 113 89 144 219 328 288 293 51 68 105 136 182 130 124 162 145 92 158 74 51 6 35 79 95 87 77 92
37 76 80 118 106 201 93 168 76 45 94 65 59 44 39 37 86 133 58 35 89 124 141 127 173 83 114 126 148 188 193 118 146 222 83 106 11 22 59 52 66 127 122 146
51 62 96 96 175 133 72 90 101 65 23 -7 -11 -20 -42 -22 42 96 71 80 59 51 51 78 138 149 151 162 175 166 187 183 230 216 185 176 139 87 74 83 92 115 211 271
94 92 80 59 96 181 129 79 61 64 114 -35 -0 -19 -50 -11 25 14 46 51 55 65 66 85 126 156 176 139 127 175 138 131 147 144 156 153 152 137 175 197 215 199 216 275
71 69 80 77 79 100 102 116 49 124 107 6 5 -3 -11 4 -1 26 44 63 52 56 90 96 130 142 167 152 158 168 172 152 145 159 154 157 150 157 152 129 151 215 244 247
12 72 70 88 85 77 115 85 81 121 195 24 18 24 41 27 60 49 53 46 40 48 74 98 139 139 123 142 140 134 142 124 121 122 146 168 170 165 158 146 147 143 94 156
-20 10 48 71 76 89 101 53 23 95 118 175 33 43 65 64 89 44 38 31 31 40 60 106 114 112 127 123 90 89 53 81 83 117 155 154 163 190 188 170 155 129 116 45
14 43 59 73 92 96 66 56 39 71 123 111 38 45 38 47 64 75 62 35 43 52 68 62 95 133 155 161 161 131 109 112 135 168 175 164 160 197 224 209 190 164 155 121
41 77 89 85 85 77 71 78 91 124 150 131 83 56 29 45 41 47 48 52 56 67 71 64 69 78 84 94 110 110 113 113 152 169 166 186 224 209 254 244 237 204 179 102
73 114 126 89 83 83 22 41 77 125 112 86 83 74 19 14 -11 18 17 33 54 73 68 61 38 29 24 33 46 55 61 58 71 92 114 128 129 181 164 183 222 304 250 179
Wind_Speed
40 39 44 51 44 37 42 42 41 30 34 21 34 11 17 13 10 28 15 34 42 41 36 41 45 51 48 46 43 49 55 57 58 57 54 50 58 55 53 51 47 44 45 46
48 48 64 57 49 50 55 50 44 33 39 34 27 31 41 30 24 27 24 32 35 23 32 37 45 42 40 48 46 47 54 56 51 56 53 51 54 55 53 48 47 46 48 47
56 58 58 58 56 51 32 33 35 39 27 33 30 33 49 39 27 34 33 19 27 36 37 33 41 42 35 40 50 48 50 56 53 54 50 50 42 44 53 52 49 48 49 48
56 65 64 60 62 48 35 34 27 27 26 41 38 33 38 52 60 60 49 16 22 21 27 29 31 40 37 41 44 54 46 50 57 53 54 53 55 55 55 51 48 49 49 48
51 52 51 59 61 42 37 16 25 18 32 32 38 35 50 58 75 87 51 18 17 16 24 28 25 39 31 31 46 50 48 50 59 60 57 53 55 54 51 52 49 50 49 51
64 59 46 56 52 31 14 20 24 25 31 36 30 33 30 51 72 81 76 23 26 19 16 15 13 15 20 19 30 40 47 49 53 62 60 56 55 54 50 53 52 52 50 51
46 54 53 55 29 26 18 20 37 41 42 37 30 39 38 40 69 74 80 72 38 26 23 16 15 13 15 30 41 42 45 52 51 56 59 58 55 54 53 53 53 53 53 51
41 42 34 33 28 35 29 28 32 35 34 35 35 39 42 41 47 32 54 31 55 54 41 23 28 23 27 17 43 38 46 54 57 52 59 59 60 57 54 53 52 52 54 53
37 43 37 38 35 39 43 53 44 39 38 40 36 31 33 30 19 15 40 35 29 60 27 48 57 35 43 15 33 32 45 55 54 57 53 62 60 59 54 54 56 53 52 52
47 45 39 48 39 38 43 39 39 38 44 48 37 33 30 20 11 16 9 17 38 39 27 27 29 41 21 18 19 35 36 45 51 50 26 45 63 61 56 53 54 54 52 50
34 36 44 35 38 40 47 49 40 41 41 45 47 43 27 31 17 13 18 34 13 31 43 37 35 59 39 36 23 18 22 19 31 22 13 15 45 51 50 44 34 41 40 33
31 32 43 43 32 37 29 35 41 52 55 45 41 37 34 24 23 27 34 31 31 41 20 23 34 37 34 47 26 19 19 27 36 41 28 36 51 47 50 53 29 10 21 27
35 28 39 34 29 24 26 33 34 43 43 59 51 46 33 27 31 36 38 34 12 35 26 32 23 25 29 33 25 21 17 20 13 33 44 49 47 55 54 49 45 30 14 6
26 23 25 33 36 33 34 34 33 37 43 42 44 36 33 31 30 33 37 33 25 10 9 18 23 25 26 27 25 22 20 24 20 34 45 56 56 43 57 49 40 37 29 18
24 29 31 31 33 33 32 32 34 39 43 39 31 25 26 32 30 33 32 33 26 5 9 15 25 32 31 27 25 21 29 30 24 26 55 59 56 62 55 43 38 38 38 35
29 33 33 31 34 37 21 27 27 24 17 11 9 19 25 27 29 33 37 39 37 30 23 14 27 35 27 23 25 26 25 30 28 36 48 51 57 56 51 47 40 36 31 37
26 27 37 37 44 35 32 29 22 22 23 24 27 24 21 20 24 32 31 35 31 31 28 24 49 38 61 21 28 34 29 30 29 29 50 51 50 53 48 48 47 40 36 33
32 30 32 43 39 35 27 31 24 23 22 17 14 18 21 23 28 30 28 26 27 27 22 29 34 28 38 38 29 19 21 24 20 22 44 53 48 42 48 51 56 54 46 36
30 29 32 36 37 31 29 31 33 27 27 21 18 18 16 19 24 30 32 29 26 25 23 21 19 20 25 14 9 9 11 10 9 6 21 33 31 36 45 48 52 49 38 32
29 25 26 31 36 44 35 35 36 27 38 26 18 19 22 31 38 35 32 31 30 29 28 25 23 24 23 16 14 12 10 10 12 14 18 20 22 23 29 34 34 33 31 29
33 35 31 33 36 35 39 46 40 44 46 32 24 25 30 36 38 27 29 35 36 34 31 28 25 26 24 17 15 15 16 20 21 19 20 24 26 27 28 28 29 27 26 22
37 34 36 33 38 48 41 38 38 36 37 34 38 37 33 29 27 30 33 36 36 35 34 31 28 25 23 20 18 20 20 20 19 20 23 25 28 30 28 25 24 23 21 20
26 22 19 18 31 31 37 27 27 31 32 38 32 25 21 23 26 29 32 33 34 33 31 28 24 21 21 22 21 21 21 18 18 19 20 23 23 24 25 23 23 22 21 20
24 24 22 22 25 30 32 34 32 31 36 36 22 16 19 25 23 26 27 27 28 29 29 28 26 25 28 30 26 22 24 22 20 21 22 24 24 26 27 28 28 25 23 23
21 21 19 18 18 21 35 39 38 35 33 23 22 22 23 22 24 25 22 22 23 23 24 26 26 24 24 25 25 23 24 24 21 21 24 24 27 27 27 28 29 26 26 26
15 14 14 11 14 17 18 16 26 39 37 28 15 17 21 22 22 23 21 18 19 19 22 23 24 23 23 23 24 25 26 23 22 22 24 25 25 27 24 24 28 27 25 24
Wind_Direction
256 254 249 246 254 266 267 279 270 292 280 323 262 256 254 251 254 261 277 140 143 138 130 132 131 137 133 129 123 126 135 136 146 168 180 197 158 168 150 149 145 147 169 184
252 251 240 244 251 256 264 261 272 274 271 288 277 264 249 255 267 267 269 148 146 128 131 129 133 126 130 138 136 134 140 142 139 171 179 186 182 172 165 152 162 160 170 180
246 241 242 242 245 257 271 281 276 277 308 299 277 286 255 259 270 252 255 238 146 142 142 136 135 135 127 132 143 141 140 152 147 170 192 187 204 203 181 185 174 184 173 155
249 243 242 241 242 261 272 277 279 285 284 280 280 287 270 248 238 230 236 220 153 146 143 141 141 139 134 138 138 148 139 146 162 153 158 145 160 152 166 163 175 185 184 186
242 245 244 241 242 261 265 291 287 289 288 289 276 290 270 251 225 205 239 185 202 175 158 151 143 147 134 129 140 147 145 150 165 173 171 163 173 180 180 181 169 178 195 201
244 247 254 245 252 258 242 299 288 293 284 287 281 272 264 227 194 215 230 218 228 201 172 179 221 154 138 130 134 142 151 152 154 181 190 180 179 189 195 181 183 177 179 190
252 248 250 255 254 224 253 274 271 260 260 273 264 269 274 275 234 215 227 234 239 208 216 184 194 221 168 148 155 151 153 162 156 168 179 183 180 183 192 188 187 189 186 192
247 241 255 253 227 231 244 256 263 251 263 266 272 269 266 256 233 151 179 177 241 235 237 199 236 244 246 169 160 155 158 170 171 165 179 190 192 189 191 193 186 193 198 200
253 245 258 260 252 243 243 243 249 269 274 270 275 282 293 255 284 259 152 150 174 235 224 190 174 231 251 206 166 163 163 174 172 176 170 190 191 195 191 192 200 200 201 199
252 251 262 262 258 257 251 249 265 267 259 260 267 267 292 280 337 118 121 150 170 174 190 212 200 173 210 218 214 168 164 167 173 170 153 166 201 212 222 227 219 209 227 224
259 260 259 267 250 258 248 256 269 271 268 263 261 267 308 283 324 25 311 282 209 171 174 184 191 180 175 176 226 182 236 185 163 160 246 258 249 244 246 257 272 260 260 274
268 262 258 252 277 263 261 273 272 262 258 270 282 277 307 310 311 326 312 312 280 260 199 192 184 178 178 174 189 203 200 242 257 258 265 261 250 255 251 247 280 306 292 289
263 275 252 249 266 287 268 283 290 281 279 262 267 273 297 305 301 301 315 316 335 264 253 243 217 211 185 172 185 193 205 228 218 261 258 257 259 249 250 256 263 279 295 330
278 283 274 252 258 275 271 291 302 294 274 270 274 271 271 289 307 313 314 296 298 295 273 217 221 224 213 196 197 201 186 253 265 267 259 253 253 262 251 259 271 278 283 288
290 265 275 273 274 276 284 309 310 298 283 273 273 258 276 289 296 293 305 304 328 356 240 204 195 247 236 207 225 222 262 262 270 253 252 251 259 254 258 267 271 276 276 280
301 264 259 267 274 265 293 335 333 328 336 320 289 276 286 304 302 297 299 304 313 321 310 240 260 249 236 216 188 250 254 277 291 253 255 263 256 263 264 264 270 278 281 281
306 301 271 272 284 274 279 298 335 342 326 289 275 288 298 308 318 305 306 324 339 331 324 298 258 255 241 227 258 256 267 282 291 261 256 265 265 265 268 268 268 274 277 283
306 303 298 275 282 274 292 290 289 348 329 332 323 304 307 312 322 325 324 341 336 346 337 297 275 267 255 254 256 263 279 297 297 286 251 255 260 283 280 276 275 274 277 283
321 309 297 287 275 280 286 292 273 279 297 311 316 309 322 332 330 327 331 336 353 1 4 345 343 3 20 285 292 285 302 325 344 334 273 283 294 289 282 281 278 282 289 295
339 340 318 302 282 268 277 292 303 285 276 293 295 310 312 303 296 308 325 330 338 349 345 339 351 16 25 352 25 34 29 333 339 335 333 325 324 324 313 311 309 311 314 309
309 314 320 311 293 292 290 290 296 270 269 279 293 298 302 299 302 319 324 322 320 324 329 339 353 348 11 16 7 346 333 325 325 343 343 324 320 321 323 327 329 325 326 331
291 319 316 315 304 288 303 299 287 289 294 284 281 290 301 314 323 319 319 321 322 321 321 324 332 338 349 331 330 325 322 329 336 338 333 327 318 319 320 326 329 335 353 346
128 106 61 28 327 317 312 315 302 299 296 296 291 306 322 330 322 315 319 323 328 335 337 332 329 332 333 326 332 324 328 338 340 343 340 329 325 325 327 330 330 338 338 340
77 66 52 32 2 335 317 304 295 292 291 299 307 325 319 316 327 325 326 323 331 338 342 342 337 329 317 313 328 336 321 324 325 321 319 318 319 319 315 316 318 323 324 327
60 54 56 42 28 3 316 296 286 282 298 309 300 312 318 333 331 323 328 331 330 342 355 356 350 343 335 323 324 331 324 321 325 324 317 315 309 315 313 318 316 316 318 320
70 80 79 84 72 46 22 340 296 278 280 289 340 341 322 324 333 331 331 333 335 344 345 347 351 354 349 337 326 320 319 318 314 317 318 318 315 312 315 309 312 320 324 329